CDT,Max TemperatureF,Mean TemperatureF,Min TemperatureF,Max Dew PointF,MeanDew PointF,Min DewpointF,Max Humidity, Mean Humidity, Min Humidity, Max Sea Level PressureIn, Mean Sea Level PressureIn, Min Sea Level PressureIn, Max VisibilityMiles, Mean VisibilityMiles, Min VisibilityMiles, Max Wind SpeedMPH, Mean Wind SpeedMPH, Max Gust SpeedMPH,PrecipitationIn, CloudCover, Events, WindDirDegrees
2013-8-1,77,68,58,55,52,50,80,60,40,29.98,29.93,29.84,10,10,9,17,8,23,0.03,3,Rain,285
2013-8-2,76,64,52,55,51,47,96,66,36,30.04,29.90,29.84,10,7,0,17,8,23,0.00,2,Fog,318
2013-8-3,75,63,51,51,48,44,77,56,35,30.23,30.14,30.06,10,10,10,16,7,22,0.00,3,,336
2013-8-4,73,60,47,52,48,42,86,62,38,30.26,30.18,30.03,10,10,10,12,5,15,0.00,3,,117
2013-8-5,74,66,58,63,58,51,90,77,64,30.01,29.88,29.80,10,8,0,13,6,15,0.51,7,Fog-Rain,177
2013-8-6,76,66,56,60,57,54,93,73,53,29.81,29.78,29.73,10,7,0,14,5,20,T,5,Fog-Rain,290
2013-8-7,74,65,56,57,50,45,86,61,35,30.02,29.91,29.78,10,10,10,17,8,23,0.00,4,,324
2013-8-8,73,64,54,55,51,49,83,66,49,30.06,30.02,29.98,10,10,10,13,5,16,0.01,6,Rain,294
2013-8-9,71,61,50,52,50,47,83,65,47,30.12,30.03,29.99,10,10,10,20,9,25,0.00,5,,293
2013-8-10,77,67,57,54,51,49,80,59,38,30.19,30.14,30.09,10,10,10,13,3,16,0.00,5,,299
2013-8-11,79,67,55,57,52,49,84,64,43,30.11,30.06,30.01,10,10,10,15,4,18,T,4,Rain,300
2013-8-12,77,62,47,55,52,46,86,64,41,30.12,30.03,30.00,10,10,10,20,7,25,0.00,2,,338
2013-8-13,72,60,47,49,47,42,89,65,40,30.22,30.18,30.13,10,10,10,13,4,17,0.00,2,,353
2013-8-14,75,59,43,50,45,40,86,61,35,30.24,30.18,30.10,10,10,10,13,3,18,0.00,2,,320
2013-8-15,80,65,50,53,48,46,83,58,32,30.12,30.10,30.08,10,10,10,13,3,16,0.00,1,,291
2013-8-16,83,68,52,57,53,47,83,61,39,30.16,30.14,30.12,10,10,10,13,5,16,0.00,2,,245
2013-8-17,82,70,58,55,53,51,78,57,36,30.18,30.14,30.08,10,10,10,21,10,31,0.00,1,,224
2013-8-18,82,72,61,56,54,51,78,57,36,30.12,30.05,29.96,10,10,8,25,12,31,0.00,1,,219
2013-8-19,88,77,66,67,62,56,73,62,50,29.96,29.91,29.88,10,10,10,16,10,23,0.00,2,,217
2013-8-20,91,80,69,70,67,64,84,66,47,29.90,29.86,29.81,10,10,7,18,11,23,0.00,1,,210
2013-8-21,88,77,65,72,64,50,87,58,28,30.04,29.89,29.79,10,9,5,21,9,24,T,3,Rain,299
2013-8-22,80,67,54,54,47,44,72,50,28,30.17,30.13,30.05,10,10,10,14,5,20,0.00,2,,339
2013-8-23,80,66,51,58,49,43,84,56,28,30.19,30.14,30.07,10,10,10,12,5,16,0.00,0,,128
2013-8-24,87,75,62,69,63,57,84,68,51,30.09,30.01,29.88,10,10,10,24,12,32,0.00,2,,154
2013-8-25,94,86,77,74,71,69,76,63,49,29.95,29.91,29.90,10,10,10,23,11,31,0.05,3,Rain-Thunderstorm,224
2013-8-26,90,80,70,74,70,66,90,73,55,29.97,29.93,29.88,10,8,0,15,5,20,0.12,5,Fog-Rain-Thunderstorm,91
2013-8-27,83,75,67,70,67,66,97,81,65,29.96,29.88,29.81,10,5,0,13,6,16,0.80,6,Fog-Rain-Thunderstorm,92
2013-8-28,87,76,64,70,65,60,87,66,44,30.05,30.01,29.96,10,8,1,10,3,13,0.00,3,Fog,147
2013-8-29,77,72,67,70,65,62,90,82,73,30.04,29.96,29.82,10,8,1,31,7,43,0.41,5,Rain-Thunderstorm,113
2013-8-30,80,72,64,66,61,57,90,69,48,29.98,29.92,29.84,10,10,10,17,9,25,0.00,4,,41
2013-8-31,85,74,63,64,62,60,93,71,48,29.93,29.84,29.69,10,7,0,20,7,25,0.05,3,Fog-Rain-Thunderstorm,181